Weather in Abdreyevo

Russia / Ulyanovsk Oblast     54°01′09″N   50°01′56″E
temp.,
°C
wind,
m/s
gust,
m/s
humid.,
%
clouds,
%
prec.,
mm/h
press.,
hPa
HPBL,
m
20 september, mon
mon2001:00+4ne126474 0.0 102610
04:00+3ene227050 0.0 102625
07:00+3e3375100 0.0 102663
10:00+9e345292 0.0 1026577
13:00+12e4441100 0.0 10261183
16:00+12e553989 0.0 10251191
19:00+10ene374798 0.0 1025199
22:00+8e51052100 0.0 1025298
21 september, tue
tue2101:00+7e51152100 0.0 1025343
04:00+7ese51153100 0.0 1024351
07:00+7e51053100 0.0 1023372
10:00+10ese6943100 0.0 1023529
13:00+12ese5841100 0.0 1021844
16:00+11e61146100 0.0 1020572
19:00+10ese61248100 0.0 1019507
22:00+9ese61252100 0.0 1018377
22 september, wed
wed2201:00+10ese71348100 0.0 1016396
04:00+10ese61250100 0.0 1015381
07:00+9se61384100 1.5 1014357
10:00+9se61193100 4.4 1015350
13:00+11se61281100 1.8 1016453
16:00+10se5978100 2.0 1017312
19:00+11ese51278100 0.2 1017353
22:00+11se61378100 0.2 1018436
23 september, thu
thu2301:00+9se51181100 0.0 1018313
04:00+9se61285100 0.4 1019372
07:00+9se41183100 0.3 1020332
10:00+12se61067100 0.3 1020386
13:00+10sse4975100 0.1 1021276
16:00+13s3856100 0.2 1021406
19:00+11sse2265100 0.0 102230
22:00+10se51274100 0.1 1023496
24 september, fri
fri2401:00+10se61273100 0.1 1022489
04:00+9se51373100 0.1 1022405
07:00+11se71568100 0.0 1021482
10:00+14se71553100 0.0 1020716
13:00+17se71337100 0.0 10181205
16:00+15sse41042100 0.2 1018598
19:00+16ese71534100 0.1 1015536
22:00+16ese71532100 0.1 1014587